ONEWEB-0354 (49217 NORAD) Tracking and Keplerian Element Data

This shows tracking and keplerian element data for the satellite.

Feedback or suggestion? Click here.




ElementValue
Catalog49217
NameONEWEB-0354
Epoch Orbit361
Epoch Day287.91667824
Epoch Year2021
RAAN317.5368
Inclination87.2371
Eccentricity0.0018834
Argument of Perigee174.8284
Mean Anonmoly352.8472
Mean Motion14.99508321
Decay Rate-0.01288067
L11 49217U 21083AH 21287.91667824 -.01288067 00000-0 -11328+0 0 9998
L22 49217 87.2371 317.5368 0018834 174.8284 352.8472 14.99508321 3617

Live tracking and technical data element details for ONEWEB-0354 (NORAD 49217). ONEWEB-0354 can be tracked NOW for your location showing map with azimuth and elevation plus other details from your city location.

Track the satellite on the map from your city or location and see movement details for azimuth, elevation, latitude, longitude, range, height, and movement on the map or in text.







IsCatalogInMostPopularTable: catalog: 49217, numindb: 7
Update: records affected: 1



GetName: 49217 ONEWEB-0354

Hit Count: updated at: Sun, 17 Oct 2021 09:19:38 GMT